Theta_e
336 337 333 330 330 328 320 319 302 311 307 300 299 301 300 306 304 304 305 307 305 308 309 310 310 309 307 308 308 309 309 306 307 301 304 319 330 332 339 336 337 338 339 343 348 347 349 347 350 351 351 350 350 350 350 351 350 350 349 350 350 350 349 349 349 348 349 348 349 348 348 348 348 347 347 347 347 348 347 347 347 347 347 347 348 347 347 346 346 344 344 343 340 338 337 337 336
332 331 331 331 326 321 314 317 304 302 304 300 301 302 301 304 303 303 304 305 306 307 309 310 311 310 310 310 310 310 309 311 312 311 323 327 329 331 339 335 335 338 338 343 348 345 347 350 347 351 351 350 351 350 350 350 350 350 349 349 350 349 349 349 349 348 348 349 348 348 348 348 347 347 346 347 346 347 346 346 346 347 347 347 347 347 346 345 344 342 342 341 339 337 336 335 335
332 329 328 328 323 318 313 312 299 300 298 296 299 301 304 303 303 305 306 306 308 309 310 310 310 309 309 310 307 307 305 314 314 314 315 326 321 329 335 338 334 339 338 343 348 345 347 347 344 350 350 351 351 350 350 350 349 349 349 349 350 349 349 349 349 349 349 348 348 348 347 347 347 347 346 346 346 346 345 345 346 345 346 346 346 346 345 344 343 341 340 339 338 335 334 333 333
333 332 324 324 312 318 307 308 305 301 297 298 298 302 303 301 303 306 307 309 309 309 309 309 308 312 308 306 308 312 310 311 315 315 313 325 330 332 335 336 337 337 339 344 347 346 347 345 343 349 351 351 350 350 350 350 350 349 349 349 348 349 349 349 349 348 348 348 347 347 347 347 347 346 346 346 345 344 344 343 343 344 345 345 345 344 343 342 341 339 338 338 336 334 333 332 331
332 327 326 322 314 308 310 305 302 301 297 300 297 302 303 304 304 305 307 309 310 308 308 309 308 312 312 310 311 306 309 314 315 318 319 328 329 334 334 337 334 336 339 343 345 347 347 344 344 347 351 350 350 350 351 350 350 349 349 349 349 348 349 348 349 348 348 347 347 348 347 346 346 345 345 344 344 343 342 341 340 340 341 342 342 342 341 340 339 338 337 337 335 334 332 331 330
328 325 328 321 310 317 309 300 300 300 304 304 300 302 304 305 305 307 307 309 310 309 309 309 307 308 308 310 312 309 317 308 317 317 322 330 331 334 334 336 330 335 339 343 345 346 347 341 343 347 350 350 350 350 350 350 349 349 349 349 348 348 348 348 348 348 347 347 348 346 346 346 345 345 343 342 340 340 339 338 338 339 339 339 339 339 338 338 336 336 335 335 333 332 331 329 329
325 320 317 316 313 312 301 301 300 301 303 304 302 303 304 305 306 307 307 308 309 309 310 308 310 309 306 311 313 315 317 321 315 327 333 329 332 334 334 330 329 333 339 341 344 345 351 341 345 348 349 350 350 350 350 349 349 349 348 348 348 348 348 348 347 347 347 347 346 346 346 345 344 343 341 340 339 338 337 337 337 338 337 337 337 336 336 335 335 335 334 333 332 330 329 328 327
327 318 316 306 307 305 301 302 301 303 303 305 305 304 305 306 307 307 307 306 306 306 308 309 309 306 307 311 306 319 319 318 324 326 326 326 334 336 335 329 330 331 337 341 344 344 343 340 344 347 349 350 350 350 350 349 349 348 348 348 348 348 348 347 347 347 347 346 346 345 345 345 344 341 340 340 338 337 336 336 337 336 335 335 334 335 334 334 334 333 332 331 329 327 326 326 325
321 314 318 309 303 307 301 300 301 305 304 305 305 307 310 308 308 307 306 308 308 309 308 309 309 305 307 308 308 316 317 319 323 322 323 326 331 336 333 331 329 331 337 340 343 344 349 338 343 346 348 349 350 349 349 348 348 347 347 347 347 347 347 347 347 346 346 346 346 345 344 343 342 341 341 339 338 337 336 335 336 336 334 334 334 333 332 333 332 332 330 328 327 325 325 324 323
316 314 309 307 307 300 301 302 301 303 303 305 304 305 306 308 307 307 306 306 308 308 309 310 310 305 309 307 309 313 318 320 320 321 323 324 330 334 333 333 332 334 337 340 342 342 346 337 339 343 346 348 349 349 349 348 348 347 347 347 347 347 347 347 346 346 346 346 345 344 343 343 341 340 337 334 332 332 332 333 333 334 332 331 332 331 331 332 331 329 328 326 325 324 323 323 322
310 312 314 304 302 300 300 300 302 303 304 306 306 308 308 309 307 307 307 307 309 307 308 308 305 306 308 308 310 325 319 318 315 316 322 323 330 331 331 335 335 336 337 341 342 342 342 344 333 337 342 345 346 348 347 347 347 346 347 347 347 347 346 346 346 346 345 344 344 343 342 341 341 339 335 334 333 332 332 332 332 332 331 331 331 331 331 330 329 328 326 325 324 323 323 322 322
310 308 309 301 300 300 300 300 300 302 304 305 305 308 309 307 307 306 307 306 308 308 308 308 306 309 306 307 311 319 318 316 318 324 322 324 324 330 332 335 336 337 338 340 341 340 342 343 342 334 335 340 342 344 344 345 346 346 346 346 346 346 346 345 345 345 345 345 343 342 341 341 340 336 335 333 332 331 332 332 332 331 331 331 331 331 330 329 328 327 325 323 323 322 322 321 320
310 312 305 302 301 302 301 300 301 302 303 304 305 307 309 307 306 307 307 307 307 306 307 310 311 309 304 307 314 315 313 316 320 322 323 321 324 330 334 333 335 337 337 340 340 339 341 341 343 342 338 331 334 338 339 340 342 343 344 344 344 344 344 344 344 343 343 343 342 342 341 339 339 339 334 333 331 331 332 332 331 331 331 331 330 330 329 328 328 326 324 322 322 321 320 319 318
309 311 308 300 306 301 300 300 301 301 301 305 306 307 307 306 308 308 307 304 306 306 309 312 310 309 306 309 310 311 315 317 317 322 320 323 326 329 332 333 335 335 338 338 337 338 339 338 342 343 342 339 342 334 331 334 338 340 341 342 341 341 341 341 342 341 340 339 337 336 336 335 336 336 335 333 331 331 331 331 331 330 331 330 330 330 329 328 326 324 323 322 321 320 319 318 317
309 314 306 304 301 302 303 299 300 300 299 305 307 306 306 308 308 307 306 304 306 310 310 312 311 307 303 306 307 314 317 319 318 320 324 325 328 328 331 332 334 334 335 336 337 337 337 338 337 341 342 341 341 340 341 339 331 335 337 337 337 337 338 337 337 337 335 334 333 331 331 330 329 330 330 331 332 331 330 328 330 330 330 329 329 329 329 327 325 324 323 321 320 319 318 316 315
316 311 306 302 299 301 302 302 303 301 301 306 306 307 305 307 309 306 307 308 308 313 310 306 311 307 309 307 310 315 315 317 319 322 322 324 326 327 329 330 330 331 333 334 334 336 337 337 337 337 339 340 340 340 340 340 331 328 332 334 333 334 334 334 333 333 328 327 326 326 324 327 326 328 323 328 327 329 327 326 327 328 329 329 329 328 328 326 325 324 323 321 320 318 316 314 312
315 312 303 302 299 301 303 302 303 298 303 304 307 306 303 304 309 309 309 309 306 307 308 311 308 311 309 309 314 314 315 318 320 321 323 322 323 323 325 327 328 329 330 332 333 333 336 336 336 337 337 338 339 339 338 339 338 327 328 328 328 329 330 330 330 326 321 320 321 319 321 330 330 330 329 329 322 329 321 321 325 329 328 328 328 327 326 325 324 324 322 320 318 316 313 312 310
312 304 302 300 302 301 304 303 303 305 303 304 305 306 305 303 306 307 307 307 306 307 307 309 311 311 312 313 317 316 316 315 320 319 320 320 321 321 321 324 325 326 329 330 332 334 335 336 336 336 335 335 338 338 339 338 339 331 335 335 334 330 327 325 329 332 325 332 322 326 330 329 330 330 329 324 327 327 325 318 322 327 328 327 327 326 326 325 324 323 321 320 318 315 310 308 306
306 304 303 299 303 303 307 306 305 303 302 304 305 306 306 305 305 307 304 304 305 305 306 309 309 310 312 313 315 313 315 315 317 316 318 319 320 318 321 323 324 325 327 329 330 332 334 334 335 334 335 335 334 337 337 336 337 333 334 334 334 329 330 331 332 331 331 331 330 329 328 329 329 329 328 326 326 320 325 318 321 325 327 326 325 325 324 324 323 322 321 318 315 311 309 307 303
308 304 300 302 307 306 308 308 306 306 305 304 304 305 305 306 306 308 303 303 304 303 303 305 306 307 309 312 313 313 314 313 316 315 314 317 319 318 318 321 323 324 326 328 329 332 333 333 334 334 335 335 334 333 335 333 334 334 334 334 333 332 332 331 332 331 331 331 330 329 328 329 328 327 322 318 321 325 324 317 319 320 321 321 320 321 322 322 321 319 317 315 309 308 307 305 304
308 306 301 303 305 305 306 306 306 307 306 304 304 305 304 306 307 307 304 302 303 304 307 306 306 308 310 311 312 313 313 313 314 315 314 314 317 319 318 319 322 325 326 328 329 330 331 332 333 334 335 335 335 333 333 332 333 332 332 333 332 331 331 331 331 331 330 330 330 328 329 328 328 327 327 325 324 325 324 324 324 324 323 321 317 320 319 318 316 313 310 307 304 305 305 305 305
309 305 306 305 305 303 307 308 307 307 307 305 304 302 303 308 307 305 304 300 300 304 307 308 308 309 309 309 311 312 313 313 312 314 314 314 315 316 318 319 320 324 327 326 327 328 330 331 332 333 334 335 334 333 332 331 331 331 331 331 331 331 331 330 330 330 329 329 329 327 327 327 327 326 325 325 323 324 323 322 322 322 322 320 318 318 316 316 313 310 305 303 303 305 305 305 305
301 304 305 306 307 304 307 307 307 306 305 304 303 305 307 305 304 306 305 304 306 309 309 309 310 310 310 311 311 310 313 312 312 312 314 314 315 316 316 317 318 319 325 325 327 328 329 330 331 332 332 333 333 333 332 332 331 331 331 331 331 330 329 329 328 329 329 329 328 327 326 325 325 323 323 323 322 320 321 321 320 321 321 319 316 317 316 314 311 306 303 304 304 304 305 306 305
304 299 303 304 305 305 307 306 307 306 305 304 305 307 304 304 301 306 305 307 309 311 311 310 311 311 311 310 310 310 311 311 311 313 314 314 315 316 317 316 317 319 324 325 325 326 328 328 329 331 331 331 332 332 331 330 331 331 331 330 330 328 328 328 328 328 329 327 327 326 325 325 323 320 321 320 319 319 320 320 321 320 320 319 315 318 315 311 306 304 304 304 304 304 303 303 303
303 301 304 304 306 306 307 306 305 306 306 307 306 303 303 305 304 305 303 306 308 310 311 311 311 311 310 310 310 310 311 311 311 312 314 315 317 317 319 319 318 318 318 322 324 325 327 328 328 328 329 330 331 332 330 330 330 330 330 329 328 326 328 328 328 328 327 327 326 326 325 322 321 319 319 319 319 318 320 321 320 319 320 318 315 313 311 307 304 303 303 303 303 302 302 302 302
303 303 305 304 304 305 306 306 305 306 306 306 303 302 304 305 306 303 305 306 308 309 309 310 310 309 309 309 309 310 310 310 312 312 312 315 317 316 317 317 318 316 317 319 323 324 325 327 326 327 328 328 329 330 329 329 329 329 329 329 328 327 327 328 328 326 326 326 325 325 324 321 319 318 318 319 318 319 320 320 319 317 316 315 312 309 308 305 303 303 303 302 302 302 301 301 301
304 303 303 302 303 303 304 302 303 304 304 305 302 302 302 305 303 299 306 308 308 308 308 309 308 307 308 308 309 309 309 309 310 311 312 314 315 316 316 318 318 317 318 318 319 323 325 325 326 326 326 327 328 327 328 327 327 327 328 329 329 327 327 327 326 326 326 325 325 325 323 321 319 318 318 318 317 317 317 318 316 315 313 311 309 307 306 304 303 302 302 301 301 301 300 300 300
303 302 301 301 302 303 303 303 303 304 302 304 303 301 303 303 303 300 305 308 308 307 307 307 307 307 307 308 308 310 310 311 311 311 310 310 313 314 315 315 316 317 317 317 318 321 323 324 325 325 326 326 326 326 326 325 326 327 328 328 327 327 327 326 326 326 324 323 323 323 322 320 318 317 317 317 316 316 316 315 313 312 311 309 308 306 304 303 303 303 304 303 303 302 301 300 301
302 301 296 299 301 300 303 302 303 304 302 303 303 300 298 299 298 304 306 308 307 306 306 306 306 306 307 308 308 308 309 311 311 310 311 312 313 314 314 317 316 317 318 318 318 319 321 323 323 324 325 326 325 325 325 325 326 326 327 327 326 327 326 326 325 325 324 322 321 321 320 320 317 316 315 316 315 315 315 313 312 311 310 308 306 306 305 304 302 303 303 303 302 302 300 300 302
302 301 298 297 298 298 303 305 304 303 302 302 301 291 296 299 302 305 307 307 307 306 305 305 305 306 306 307 307 308 309 309 310 311 311 312 313 312 312 314 317 317 317 318 318 318 319 323 323 324 324 325 325 324 325 325 325 326 326 327 326 326 326 325 324 324 323 322 319 318 319 319 317 315 315 315 314 313 313 312 311 309 309 307 305 304 302 302 302 302 302 301 300 300 299 299 298
297 300 300 295 294 295 303 303 302 298 302 301 301 291 295 299 302 305 306 306 305 303 304 304 305 305 306 307 307 307 308 309 309 310 312 313 313 313 313 313 314 316 317 317 318 318 318 320 322 321 323 324 324 324 324 324 325 325 325 325 326 326 325 324 324 323 322 320 319 317 317 317 316 315 314 313 312 311 311 310 310 308 307 306 304 304 302 301 301 300 299 298 299 298 299 298 297
300 295 294 298 295 298 302 303 301 298 300 301 299 292 295 300 302 305 306 306 304 302 303 304 304 305 305 306 306 306 307 309 310 310 310 311 311 312 313 312 313 312 314 316 317 318 317 318 320 320 322 322 324 323 324 324 324 324 324 321 325 326 324 324 323 322 321 320 318 316 316 316 315 314 313 312 310 309 309 309 308 307 306 304 303 302 301 299 299 300 299 299 297 297 298 297 298
299 296 294 294 297 297 298 302 303 303 300 299 299 294 297 298 303 304 306 305 304 303 303 304 305 305 305 306 306 306 307 308 310 310 310 311 311 311 311 310 312 312 312 314 315 316 316 316 318 319 319 320 322 323 323 324 324 323 323 323 324 324 323 322 322 322 320 318 317 315 315 314 313 313 312 311 309 308 307 307 307 307 305 303 302 301 299 300 300 300 298 299 299 298 298 298 298
295 299 295 298 295 297 295 301 303 305 300 297 299 294 295 298 301 302 304 304 303 302 302 303 304 305 305 306 306 306 306 307 307 309 310 310 311 311 311 310 311 311 312 313 313 314 315 315 317 318 318 320 320 322 322 323 323 323 322 323 322 322 322 322 322 321 319 317 316 315 314 314 312 312 311 309 308 307 306 306 306 306 304 302 301 300 299 300 300 299 297 299 298 298 297 297 297
295 296 295 296 298 298 296 295 300 302 302 299 300 299 298 300 302 303 304 305 304 303 303 303 304 304 305 305 306 306 307 307 308 310 310 310 310 310 311 312 312 312 311 310 312 313 314 315 315 316 316 317 318 320 321 322 322 321 321 321 321 320 321 321 321 319 318 317 315 314 313 312 310 311 310 309 307 306 305 304 305 305 303 301 301 300 299 299 300 299 299 298 299 299 297 298 297
296 297 296 295 293 294 295 299 302 302 299 298 297 296 298 299 300 302 303 304 303 303 304 304 304 304 305 305 306 307 308 308 310 311 312 311 311 311 311 311 311 311 310 310 310 311 312 313 314 314 314 314 316 317 319 319 319 318 317 318 318 317 318 317 319 318 318 316 315 313 312 311 310 310 309 308 307 305 304 303 303 304 302 301 300 299 298 298 299 299 299 298 298 299 300 298 298
299 298 297 295 295 296 299 300 302 303 299 298 297 297 297 298 299 301 302 303 303 303 302 303 304 304 305 306 307 308 308 307 312 313 312 312 311 311 312 311 310 309 309 308 308 309 311 311 312 311 313 313 313 314 315 316 315 316 316 316 315 316 315 316 316 317 316 315 315 313 311 310 310 309 308 307 306 304 303 303 303 303 301 300 300 299 299 299 300 299 298 298 298 297 298 299 299
297 296 295 294 296 294 299 299 302 303 298 296 298 297 297 298 299 301 303 302 301 302 302 303 303 305 306 307 306 307 307 310 312 311 309 308 309 310 310 309 307 307 307 308 308 308 310 310 310 311 312 311 312 313 314 315 315 315 314 314 314 315 314 313 313 314 315 315 314 313 311 310 309 308 307 307 305 304 302 301 302 301 300 300 300 300 300 299 300 299 299 296 298 296 295 298 297
297 295 295 294 295 298 300 300 302 300 296 294 297 295 295 297 299 301 302 302 303 304 304 304 305 305 306 306 306 306 306 307 307 307 308 308 309 309 309 309 309 308 308 308 308 308 308 309 309 310 310 310 310 311 312 312 314 315 314 314 314 313 315 315 314 314 314 313 313 311 310 309 308 307 306 305 304 303 302 301 301 301 300 300 299 299 299 299 299 298 298 295 294 296 296 298 297
295 295 293 292 297 295 292 299 299 299 297 295 296 294 295 299 301 302 303 303 303 305 305 305 306 305 305 305 304 304 305 306 304 305 306 306 306 306 307 306 306 306 306 306 306 306 307 307 308 309 309 310 309 310 310 312 313 314 314 314 313 313 312 312 312 312 312 311 310 309 309 309 307 306 305 304 304 303 302 301 301 300 299 300 299 298 299 299 298 297 298 296 295 292 293 295 297
298 297 295 294 295 296 296 296 298 299 299 299 296 295 296 301 299 300 302 303 304 305 306 306 307 307 306 307 306 306 304 304 305 304 304 304 305 305 305 305 306 305 305 305 306 305 306 306 307 308 308 308 309 308 308 309 310 310 310 310 308 309 309 306 307 307 308 307 307 307 306 307 307 306 305 304 303 302 302 301 300 299 299 299 299 298 299 299 298 297 297 296 295 293 292 294 295
296 299 298 297 298 296 297 297 295 293 293 294 294 288 291 297 298 299 302 303 302 304 305 303 303 303 304 303 303 304 306 306 303 303 303 303 304 304 303 303 304 304 303 304 305 305 306 306 307 307 308 308 307 308 308 308 308 307 306 305 304 304 303 304 303 303 305 305 305 307 307 306 306 305 305 304 303 302 301 301 301 299 299 298 298 298 299 299 298 297 297 296 296 296 295 294 293
293 295 300 299 297 296 295 295 294 288 287 294 296 287 285 296 296 299 300 301 302 304 302 300 301 301 301 301 302 302 302 302 303 302 303 302 301 301 301 301 301 301 302 304 304 304 305 305 306 306 306 307 308 307 307 306 306 306 305 305 305 305 304 305 306 307 306 306 307 306 306 305 305 304 304 304 303 302 301 301 300 299 299 299 298 298 298 298 298 297 297 296 296 296 297 293 293
292 297 299 298 296 295 295 294 293 290 295 296 295 293 287 288 295 300 301 299 300 301 299 300 300 300 300 300 300 300 300 301 301 301 300 301 300 300 299 300 300 300 301 302 303 303 303 303 304 305 305 305 306 306 306 306 305 305 305 305 305 304 304 304 305 305 306 305 305 305 305 304 304 304 303 303 303 302 300 300 300 299 299 298 298 297 297 298 299 298 298 296 297 296 296 294 293
296 296 297 296 295 294 294 293 292 292 291 287 293 295 288 288 296 299 300 297 298 298 297 298 299 299 299 300 300 300 300 300 300 299 299 299 299 299 299 299 300 300 300 300 301 302 302 303 302 303 303 303 304 305 305 305 305 304 304 304 304 305 304 304 304 305 304 304 303 303 303 302 302 302 303 303 302 302 300 300 300 299 298 298 297 297 297 299 298 297 297 296 296 296 295 296 295
300 297 297 297 296 296 295 292 291 291 288 285 290 293 287 289 297 296 297 295 296 296 298 298 298 298 298 298 299 299 299 299 299 299 299 298 299 299 299 299 299 299 300 301 301 301 301 301 301 301 301 301 302 303 303 304 304 304 303 303 303 303 304 304 304 303 303 303 301 301 301 301 301 300 301 302 302 301 300 299 299 299 298 298 297 297 297 297 298 298 297 296 295 295 295 295 295
297 298 296 295 296 294 294 293 291 288 284 287 293 294 292 285 294 296 296 296 296 297 297 297 298 298 298 298 297 297 297 297 297 297 297 298 298 298 298 297 297 298 299 299 299 300 300 300 300 299 299 300 301 301 302 302 303 303 303 303 302 302 303 303 302 302 302 303 301 301 301 300 300 300 300 300 301 300 300 299 298 299 298 297 297 297 296 296 298 298 298 297 295 295 295 295 296
297 294 292 292 291 294 290 289 290 284 284 291 293 294 294 284 291 296 297 298 298 297 296 295 295 296 296 296 296 296 296 295 296 296 295 296 296 296 296 296 296 296 297 297 298 299 299 299 299 298 298 298 299 300 300 301 301 302 302 302 302 302 302 301 301 301 302 302 302 301 301 300 299 300 299 299 299 300 299 299 298 298 298 297 296 297 296 296 297 298 297 296 295 296 296 295 295
293 292 290 287 286 288 285 288 282 284 284 288 291 292 288 288 293 298 300 300 297 298 297 296 295 295 295 294 294 294 295 294 294 293 294 294 294 294 294 294 295 294 294 295 296 297 297 298 298 298 297 298 298 299 299 299 300 300 300 300 301 301 301 301 301 301 301 301 301 301 301 300 300 299 298 297 298 299 298 298 298 297 297 297 297 297 296 296 296 297 296 296 295 295 295 295 294
292 290 288 286 283 283 280 284 286 286 289 289 290 292 286 292 294 299 299 299 297 297 297 296 295 293 292 292 293 293 293 293 292 292 292 292 292 293 293 293 293 293 293 294 295 295 296 296 296 296 297 298 298 298 298 298 298 299 299 299 299 300 300 300 300 300 300 300 301 301 300 300 300 299 298 298 298 299 298 298 298 298 297 297 297 297 296 296 296 296 296 295 295 295 295 294 294
292 296 293 289 288 284 279 282 279 281 284 288 290 287 284 285 291 299 297 296 297 296 296 295 294 293 293 292 292 292 291 290 291 290 290 291 291 291 291 292 292 292 292 293 293 294 295 295 295 295 295 296 297 297 297 297 297 298 298 298 298 298 298 298 299 300 299 299 300 300 300 300 300 300 300 300 299 299 298 298 298 297 297 297 297 296 296 296 295 295 295 295 294 294 294 293 293
295 296 296 290 288 293 284 286 285 284 284 285 286 285 291 291 299 300 298 297 295 295 294 293 292 292 292 291 290 289 289 289 289 289 290 290 290 290 290 291 291 291 291 292 292 293 293 293 294 294 294 295 296 296 297 297 297 297 297 297 297 297 297 298 298 299 299 299 299 299 299 299 299 299 300 300 300 299 298 298 298 297 297 297 296 296 295 295 294 294 293 293 293 294 293 293 293
291 291 287 290 296 293 288 287 288 287 285 281 289 287 292 297 298 300 298 293 293 293 292 291 290 290 290 289 289 289 289 289 288 288 288 288 289 289 290 289 289 289 290 290 291 292 292 292 293 293 293 294 294 295 296 296 297 297 296 296 296 297 297 297 296 297 297 298 298 298 298 299 299 299 299 300 300 299 298 298 297 297 297 297 296 295 294 294 294 293 293 292 292 293 292 292 292
292 286 292 295 297 295 289 281 284 283 280 281 288 284 286 288 284 297 295 291 291 290 290 290 290 289 288 288 288 288 288 288 288 288 288 287 288 288 289 289 289 289 290 290 290 291 291 292 292 292 292 292 293 294 294 295 295 296 296 296 296 296 295 296 296 296 297 297 297 297 298 298 298 299 299 300 299 298 298 297 296 296 296 295 295 295 294 293 293 293 292 292 292 292 291 291 292
294 293 298 289 284 284 289 285 277 278 277 280 284 287 287 289 289 294 292 291 290 290 290 289 289 288 287 287 287 287 288 287 287 287 287 287 287 287 287 288 289 289 290 291 290 290 290 290 291 291 290 291 292 293 294 294 295 295 295 295 295 295 295 295 295 295 295 295 295 296 296 296 297 298 297 297 297 297 296 296 295 295 295 294 295 294 294 293 293 292 292 291 291 291 291 290 291
297 296 293 297 291 286 284 286 285 284 278 279 280 285 282 292 292 294 292 292 290 290 289 288 288 288 288 288 287 286 287 287 287 287 288 288 288 287 287 287 287 288 289 290 290 290 289 290 289 289 290 290 290 291 291 292 293 293 293 293 293 294 294 295 295 294 294 293 294 294 294 294 295 296 296 296 296 295 296 295 295 294 294 294 294 294 293 293 292 292 291 291 291 290 290 289 290
289 289 288 291 288 292 290 287 285 283 280 280 279 278 284 291 294 294 291 291 292 291 289 289 288 288 288 288 288 288 287 287 286 286 287 287 287 287 287 288 288 288 289 289 290 289 289 289 289 289 289 289 289 289 290 290 290 290 291 291 291 292 292 293 293 294 293 293 293 293 293 294 294 294 295 294 294 294 295 295 294 294 294 293 293 293 293 292 292 291 291 291 290 290 289 289 289
293 291 287 290 286 285 281 279 289 285 282 279 279 277 285 293 292 292 292 292 292 292 291 290 289 289 289 289 288 287 286 287 286 287 287 287 286 287 287 288 288 288 288 288 289 289 288 288 288 288 288 288 288 289 289 289 289 289 289 289 289 291 291 291 291 292 291 292 292 292 293 293 292 293 293 293 293 294 294 294 293 293 293 293 293 293 292 292 291 290 290 291 290 289 289 288 288
Wind_Speed
7 6 4 5 5 5 6 4 6 5 4 4 6 2 4 2 4 4 2 2 1 5 5 4 3 4 6 6 9 9 8 8 6 7 5 2 3 4 4 5 3 7 12 10 11 13 12 11 11 13 14 15 15 15 14 13 13 12 12 12 11 11 11 10 9 9 8 8 8 8 7 8 8 8 8 8 8 9 8 7 7 8 8 8 9 9 9 10 10 9 9 11 11 10 10 8 8
5 4 5 4 4 4 3 3 5 6 5 7 1 1 7 4 3 3 4 6 6 5 5 4 4 5 7 8 8 9 10 9 7 6 3 3 6 4 7 5 6 9 11 10 10 12 12 12 10 12 16 15 15 15 15 14 14 13 12 11 11 11 10 10 10 10 9 9 8 8 8 8 8 9 9 9 9 9 8 7 7 8 9 10 9 9 9 10 8 8 9 10 10 9 9 8 8
4 5 4 4 5 5 5 4 5 5 5 5 4 5 2 1 2 3 5 6 5 3 2 4 4 5 7 6 8 6 3 3 3 3 3 7 4 5 8 6 7 7 11 9 10 12 11 13 9 10 16 15 16 15 15 14 14 13 12 11 11 11 10 10 10 10 10 9 8 8 8 8 9 10 10 9 9 9 9 8 7 8 8 8 8 9 9 8 8 7 8 10 10 8 8 8 7
6 3 5 2 4 3 5 4 6 6 6 4 2 5 4 3 4 5 4 4 3 2 1 3 4 5 5 7 4 4 9 5 4 5 1 4 4 4 8 8 7 7 9 7 9 11 11 14 11 10 13 15 15 15 14 15 14 13 12 12 11 11 10 10 10 10 9 9 8 8 9 9 10 10 10 9 9 9 8 7 6 6 7 7 7 7 7 7 7 7 6 9 9 8 8 7 6
5 3 3 4 5 4 3 4 6 5 6 5 6 4 5 2 5 6 5 5 3 2 3 2 5 5 4 8 5 4 5 1 3 2 1 4 1 3 8 7 9 8 9 9 10 11 10 18 13 10 11 15 15 15 13 13 13 13 12 11 11 10 10 10 10 10 9 9 9 10 10 10 10 9 8 8 8 8 8 4 4 4 2 4 5 5 5 5 4 4 4 7 9 9 8 7 6
4 4 3 4 3 4 4 5 6 6 4 3 5 5 7 6 5 5 7 6 2 2 3 4 6 6 3 4 5 6 4 5 2 1 1 3 2 2 9 7 9 8 9 10 10 9 10 18 14 10 11 15 15 14 13 13 14 13 13 13 12 11 10 10 10 9 9 10 10 11 11 11 11 9 8 7 5 4 4 5 1 4 4 1 3 4 3 4 3 3 3 7 8 8 8 8 7
3 3 3 4 3 3 4 5 6 5 3 3 4 7 7 7 6 6 7 6 5 2 3 4 1 5 7 3 6 9 4 2 3 3 4 5 3 5 9 8 8 9 10 11 10 9 11 16 14 11 10 12 13 13 12 13 14 13 13 13 13 11 11 11 11 10 11 11 11 12 12 11 10 9 8 7 6 4 2 3 1 5 3 2 3 3 3 3 3 3 3 6 8 8 8 7 7
3 4 1 5 3 3 6 6 6 4 1 3 5 8 8 8 8 6 7 6 1 2 6 5 4 2 6 3 5 5 4 1 3 5 6 4 5 6 8 8 8 10 10 11 10 8 14 14 13 13 10 11 12 12 12 13 12 13 12 13 12 12 12 10 11 11 11 11 11 11 11 11 10 8 9 9 7 4 3 3 6 3 3 2 1 3 4 4 4 4 5 7 8 8 8 7 7
3 6 1 4 6 4 5 6 5 3 6 3 5 5 6 6 5 6 7 4 6 4 4 5 5 5 4 2 6 7 4 5 5 5 4 5 5 8 7 8 9 9 11 11 10 9 9 12 12 11 11 12 12 13 14 15 13 13 13 13 13 12 11 11 11 11 11 12 12 11 10 9 8 8 9 8 6 7 7 6 9 6 6 7 5 4 4 5 5 5 6 6 7 7 7 7 7
3 4 2 4 5 6 5 4 4 3 5 3 6 7 7 5 5 4 6 7 2 3 1 3 3 9 7 9 7 5 4 5 5 4 4 4 5 7 8 9 9 10 11 11 10 10 8 9 10 10 11 12 13 14 16 15 15 14 13 13 13 13 12 12 11 11 12 12 11 11 10 10 9 9 8 5 4 3 3 5 8 8 5 6 6 5 4 5 5 6 6 6 7 7 7 7 7
4 4 2 5 6 5 5 4 5 4 2 2 5 3 1 2 3 4 4 6 3 4 3 4 6 11 8 8 6 4 7 7 5 4 7 6 5 7 7 7 7 10 10 12 10 9 9 10 9 7 10 12 13 14 15 14 16 15 13 11 12 11 11 10 10 10 10 10 11 10 9 7 9 10 8 8 6 4 5 6 7 6 6 6 6 5 6 5 5 5 6 7 7 7 7 7 7
4 4 3 5 6 5 6 6 8 7 8 6 4 4 2 1 2 4 2 6 1 4 6 9 1 2 7 7 6 4 7 5 4 5 6 5 5 7 6 6 7 8 9 11 10 10 9 11 9 7 8 10 13 13 13 13 14 14 13 11 11 10 10 11 10 9 9 9 7 6 7 8 9 9 8 7 6 5 6 7 7 7 8 7 7 6 6 6 6 6 6 7 7 7 7 7 8
5 3 5 6 5 5 6 7 5 7 10 2 2 5 3 3 4 3 5 6 7 7 8 10 1 3 6 6 2 7 7 7 5 6 5 4 4 6 5 6 7 8 9 10 10 10 11 12 14 10 8 8 8 11 12 11 12 12 13 12 11 10 10 9 9 10 10 8 7 7 5 8 7 7 10 9 7 6 8 8 8 8 8 8 8 7 7 7 7 7 7 7 7 7 7 7 8
5 3 5 7 2 7 7 7 7 5 6 5 1 5 3 4 3 5 4 8 8 8 4 3 4 4 11 9 9 8 5 6 6 4 4 4 3 5 6 4 7 8 9 11 11 11 11 12 14 15 11 9 9 7 9 10 11 12 12 13 12 11 10 8 8 9 9 7 6 6 6 9 7 6 8 9 9 8 9 9 8 9 9 9 9 9 9 9 9 8 8 8 8 8 8 8 8
5 2 4 5 7 6 6 6 5 7 8 5 4 2 4 6 6 4 6 8 7 7 2 1 4 2 4 3 3 6 5 6 5 5 4 3 4 4 6 4 6 7 8 10 11 11 13 13 15 14 15 12 12 10 10 8 11 12 12 13 12 11 9 9 8 8 8 7 6 5 7 8 7 8 7 7 7 7 6 6 7 10 10 10 10 10 10 10 10 9 9 9 9 9 9 8 8
4 3 4 6 7 5 2 5 3 5 5 3 5 1 4 8 6 6 3 2 8 6 1 7 8 8 9 11 8 7 7 6 5 5 5 5 4 4 5 5 6 8 8 9 11 11 12 14 12 14 14 16 15 13 13 13 10 12 12 12 12 10 9 9 9 9 9 8 7 8 9 8 7 6 8 6 7 7 6 7 7 9 10 11 11 10 11 11 11 10 10 10 10 9 9 8 8
3 3 6 6 8 6 2 4 1 6 7 9 7 4 7 8 4 5 3 4 9 12 10 11 9 8 15 14 2 7 8 7 6 7 5 4 4 4 5 5 6 7 7 10 11 12 13 15 15 12 15 16 16 14 13 13 10 11 10 11 12 11 9 9 9 9 9 7 8 8 9 7 7 6 6 8 7 7 7 7 7 9 11 11 11 11 11 11 11 11 11 11 11 10 9 9 7
4 5 6 7 7 8 6 6 7 7 8 10 6 4 7 10 4 3 2 8 11 13 14 16 12 13 14 12 5 7 8 7 7 7 6 5 5 5 6 7 8 9 9 9 12 12 13 14 16 15 12 17 15 13 10 10 8 12 12 9 9 9 8 9 8 8 8 7 8 8 7 8 7 7 8 8 8 10 8 7 8 7 10 10 10 11 11 11 11 11 11 11 12 11 10 5 4
6 6 7 9 7 8 6 7 9 10 11 11 12 12 9 11 9 7 9 10 10 13 15 15 14 14 15 15 9 8 8 7 8 8 8 9 8 9 8 7 9 9 9 9 10 14 13 12 14 16 14 14 17 15 10 11 9 10 12 11 9 10 9 9 10 10 9 9 8 8 8 8 8 8 8 8 8 10 9 9 8 7 9 9 9 10 10 11 11 11 11 11 11 10 5 4 4
8 8 9 9 9 12 10 7 11 11 12 13 13 12 12 9 9 7 10 13 11 14 14 14 14 13 12 12 15 13 10 10 9 9 11 12 11 10 10 10 10 11 11 10 10 11 13 12 14 14 15 14 14 13 10 11 11 9 12 13 12 10 10 9 11 11 10 11 10 9 9 9 9 8 7 11 7 8 7 9 8 8 9 8 9 7 8 9 10 9 9 9 7 4 3 3 4
2 7 8 8 9 8 9 10 10 10 10 12 13 13 14 12 11 8 8 11 11 15 15 16 17 15 13 11 11 5 11 10 10 10 11 13 13 10 11 11 10 10 9 8 9 11 15 14 12 13 14 14 14 12 13 13 12 12 12 12 12 12 11 10 10 11 11 11 12 10 10 9 8 8 7 7 8 8 8 9 7 7 7 7 9 7 7 7 6 5 5 5 4 4 3 3 3
5 10 12 13 13 14 10 10 11 7 4 10 14 14 13 9 6 11 13 14 11 11 13 14 16 17 16 15 13 9 8 9 11 12 13 13 14 14 12 11 11 9 8 9 11 11 14 14 14 12 14 14 14 12 12 11 12 12 13 11 13 12 11 10 10 10 11 11 11 10 10 10 10 9 8 9 9 9 8 9 9 9 8 8 9 7 7 7 6 5 5 5 4 4 3 3 3
8 11 13 14 14 15 12 11 3 1 9 12 13 12 11 11 13 14 14 16 16 16 16 17 19 20 19 16 14 12 10 11 12 13 14 13 14 14 13 11 10 10 8 10 9 9 11 14 14 13 13 13 15 13 11 12 13 12 12 11 12 10 10 10 10 11 11 12 11 11 11 10 10 9 8 9 10 9 9 9 9 9 9 8 9 7 7 7 6 5 5 5 3 3 3 2 2
9 14 12 15 12 13 12 13 1 5 10 13 13 13 15 15 19 14 16 15 17 18 18 19 20 20 19 17 14 14 14 14 14 15 14 14 14 15 13 13 11 9 9 9 9 9 10 14 15 14 12 13 12 14 14 14 12 11 11 10 10 10 10 10 10 10 10 11 12 11 12 9 10 10 9 9 10 9 9 9 9 9 9 8 9 7 7 6 6 5 5 4 4 3 3 3 2
11 12 13 13 11 12 12 11 12 11 11 12 12 15 20 16 17 17 23 18 18 18 18 19 20 19 17 16 15 13 14 14 14 15 13 11 11 12 10 9 10 9 11 10 9 10 11 12 15 16 14 15 12 13 14 11 10 11 10 11 11 10 10 10 10 10 10 10 12 13 13 10 10 9 9 10 9 9 9 9 9 8 8 8 8 7 7 6 6 5 5 5 4 4 4 3 3
11 16 14 13 13 11 10 12 13 11 9 10 11 17 18 17 17 22 25 20 19 19 21 20 17 16 16 14 13 13 13 14 13 14 14 10 9 10 11 10 9 11 12 10 10 10 11 13 15 16 15 14 13 13 12 11 11 11 12 11 11 10 11 10 11 10 10 10 11 13 12 10 10 10 9 9 10 10 9 9 8 8 8 7 7 7 7 6 6 5 5 5 5 4 4 4 3
6 9 9 11 14 15 15 17 17 14 14 13 12 15 17 13 8 15 10 6 4 9 11 11 13 14 15 13 13 12 13 14 14 13 11 9 9 10 11 9 10 13 11 12 11 10 10 12 14 16 16 14 12 13 12 13 12 12 11 11 11 11 11 10 10 10 10 10 10 12 12 11 9 9 9 10 9 9 9 9 8 8 7 7 7 6 6 6 5 5 5 5 5 4 4 4 3
9 10 12 16 17 17 18 18 18 12 13 13 14 16 15 14 10 17 18 13 12 10 12 13 14 15 15 15 14 11 12 12 11 11 13 12 8 9 9 9 11 11 11 13 12 10 11 15 15 16 16 15 14 14 13 13 13 12 12 11 11 11 12 11 10 10 10 10 11 11 11 11 10 9 10 10 10 9 9 9 8 8 7 6 7 6 6 5 5 5 5 4 4 4 4 4 3
8 7 11 13 15 15 17 17 17 14 12 2 3 9 13 14 12 20 20 17 14 14 13 12 14 15 15 15 14 12 12 12 11 11 11 11 9 8 9 10 10 11 10 13 12 12 14 14 14 15 16 15 16 16 13 12 12 11 11 11 11 10 11 11 11 11 10 10 10 11 11 12 10 9 9 10 9 9 8 8 8 7 7 6 6 7 7 5 5 5 5 4 4 4 4 4 3
8 12 12 14 13 13 16 11 8 8 4 8 5 9 4 8 13 15 15 11 10 9 10 13 14 14 13 14 13 14 14 14 14 12 10 10 10 10 12 10 11 10 8 8 12 13 11 8 9 10 14 16 16 15 13 11 12 11 10 10 10 10 10 11 11 10 10 10 10 11 11 12 11 10 9 9 9 8 8 8 8 7 7 7 6 7 7 6 6 6 6 5 5 5 5 5 5
9 11 7 9 10 11 10 5 6 5 6 8 6 11 9 13 15 13 11 5 9 10 13 17 18 17 15 14 14 15 17 16 16 16 12 10 10 10 11 11 11 11 8 9 11 13 12 10 9 9 12 15 14 15 14 12 11 11 11 10 10 10 10 10 10 10 9 9 9 9 11 11 11 11 10 9 9 8 8 7 8 7 7 7 7 6 7 6 6 7 6 6 6 5 5 5 5
9 9 8 8 9 7 7 5 9 8 4 8 8 10 8 8 7 8 9 6 6 11 14 18 18 17 16 15 17 17 18 17 16 15 14 13 12 9 9 11 11 12 12 9 8 9 12 12 11 11 12 15 14 14 13 12 11 11 10 10 9 11 10 10 10 10 9 9 9 8 11 11 11 11 10 9 9 8 8 8 8 7 8 7 6 7 7 7 7 6 6 6 7 6 6 5 4
9 11 12 11 11 12 12 5 3 10 3 10 11 13 12 13 11 12 14 19 20 18 18 19 21 21 18 16 15 15 15 15 12 12 11 10 8 7 9 11 10 11 10 10 9 9 10 12 10 11 12 13 14 13 13 12 10 10 10 9 10 10 10 9 9 8 8 9 9 8 10 11 11 11 10 10 9 9 8 8 8 8 8 7 7 7 7 7 7 6 7 6 6 6 6 6 5
9 9 12 10 13 11 9 7 11 2 6 9 12 12 12 15 15 16 16 16 18 17 19 20 19 17 17 15 15 16 15 13 12 11 9 7 8 8 9 8 8 8 8 8 8 7 8 8 8 9 8 9 10 10 11 11 9 9 8 8 9 9 9 8 8 8 8 8 8 8 9 10 10 12 11 10 9 8 8 8 7 9 8 7 7 7 7 7 7 7 7 7 6 6 6 7 6
11 12 14 13 13 13 17 14 9 11 13 17 16 18 18 16 15 14 15 15 17 18 19 19 17 16 17 16 15 15 13 12 10 7 6 8 9 9 7 6 6 5 5 5 5 5 5 5 6 7 8 8 9 9 9 9 9 8 7 8 8 9 7 8 8 8 7 8 8 8 9 10 9 11 11 10 9 9 9 8 8 9 8 8 7 7 7 7 7 7 7 7 6 5 6 6 6
17 16 12 14 15 14 13 14 16 15 18 15 16 17 16 15 14 15 17 18 18 19 20 17 17 17 17 16 13 11 9 8 5 5 8 8 8 8 7 7 6 5 5 4 4 3 4 4 5 5 7 8 8 8 7 7 7 8 8 7 8 8 8 8 9 9 8 9 9 10 9 10 10 10 11 10 10 9 9 8 8 8 8 8 8 8 9 8 9 9 8 9 8 5 3 6 6
17 15 13 15 16 17 14 16 13 12 15 15 13 15 18 16 14 16 19 20 18 18 16 16 17 16 14 11 9 6 5 5 6 7 7 7 7 8 8 6 7 6 4 5 3 2 3 4 5 5 5 7 7 7 7 7 8 8 7 9 9 7 8 8 8 8 8 8 9 9 9 9 9 10 10 10 10 9 8 7 7 8 8 8 8 9 9 9 9 9 7 7 9 7 5 5 6
14 14 15 15 13 16 13 16 13 14 12 12 12 16 16 17 17 20 21 18 17 14 15 16 19 16 10 5 5 3 6 6 5 5 9 10 10 10 9 9 10 11 10 8 6 5 3 2 3 3 4 6 6 6 6 6 7 7 7 7 7 7 7 8 8 7 8 7 7 7 7 8 9 9 9 10 9 10 9 8 8 8 9 8 8 8 9 8 9 9 8 7 6 9 7 8 7
14 12 12 13 12 14 17 16 11 5 4 12 13 17 16 17 20 19 16 13 10 12 13 15 14 10 7 3 4 6 5 6 10 11 10 11 11 12 10 10 11 11 11 11 9 7 5 3 2 1 1 3 4 5 5 5 6 6 6 4 5 5 5 5 6 6 6 7 7 6 7 7 8 8 8 10 9 10 10 8 8 8 9 8 9 9 9 9 10 11 11 9 8 6 6 7 9
11 10 10 12 11 12 11 7 2 4 4 12 14 17 14 17 18 14 5 2 7 8 15 14 10 7 5 6 5 4 6 9 11 13 13 14 14 13 13 13 12 11 11 12 12 10 7 7 5 3 1 1 2 4 5 4 4 4 4 4 2 4 3 3 3 4 5 5 6 6 6 7 8 8 9 9 8 8 10 10 8 9 10 10 9 9 10 11 11 10 11 10 10 9 8 8 9
10 11 11 13 14 12 13 13 14 15 14 12 11 12 11 7 4 5 5 4 7 14 13 3 4 4 3 4 6 8 10 10 11 13 15 14 14 15 15 14 13 14 14 14 13 12 8 10 8 6 3 1 1 2 4 3 3 3 2 2 1 2 2 2 4 5 6 6 7 8 9 9 10 10 10 11 10 10 10 9 9 8 9 10 9 9 9 11 11 12 13 12 13 12 11 7 9
10 12 14 16 16 16 15 15 14 9 9 8 12 11 6 2 2 5 9 11 17 14 10 10 11 11 10 10 11 12 11 13 14 15 15 14 14 15 16 17 17 15 16 14 13 13 13 11 10 8 5 4 3 0 2 3 3 3 4 4 4 5 5 6 7 7 6 8 8 7 8 9 9 9 10 10 11 11 10 10 9 9 9 9 9 9 9 9 11 12 14 13 14 13 11 8 8
9 6 6 7 9 11 12 12 8 7 6 2 7 6 10 4 11 12 10 12 15 11 11 13 12 11 12 13 13 13 13 14 15 16 16 17 16 16 18 18 17 17 15 14 13 14 14 12 11 9 7 6 5 3 0 2 3 3 4 5 5 5 6 5 5 6 6 5 5 7 7 8 9 10 10 10 10 11 11 11 11 11 9 9 10 10 10 11 11 13 12 12 12 12 10 11 12
9 4 4 5 7 8 8 6 6 10 9 12 9 7 10 11 8 9 8 16 13 5 15 14 11 14 13 13 15 15 15 14 13 15 16 16 17 17 17 17 16 16 14 14 14 14 15 15 13 12 9 8 6 5 2 1 1 1 3 4 5 5 6 7 6 5 4 5 4 5 6 6 8 9 9 10 10 11 11 10 11 10 10 11 10 11 10 10 7 9 12 14 11 12 13 12 12
3 2 3 5 4 6 5 6 7 7 10 10 3 8 6 7 6 4 9 11 9 9 13 12 13 13 13 13 13 15 15 15 15 14 15 16 16 16 16 16 16 16 15 14 14 13 13 13 14 13 12 10 9 8 6 4 3 4 3 3 4 4 5 6 6 5 4 4 5 5 6 6 7 8 9 10 10 10 10 11 11 11 11 11 11 9 11 10 12 12 13 13 14 13 13 12 10
2 1 1 2 2 4 7 6 7 8 7 13 6 9 5 10 3 4 1 2 2 11 9 12 13 13 10 11 12 14 13 12 13 14 14 15 15 15 14 14 16 14 13 14 13 13 13 13 14 14 14 11 10 10 8 7 5 4 4 4 6 6 6 6 5 6 6 4 5 6 6 6 6 7 8 10 9 10 10 10 10 11 12 12 10 11 13 13 12 13 15 16 15 14 12 13 13
4 1 6 7 6 7 6 5 5 4 9 11 11 14 8 6 2 3 3 1 5 5 8 10 12 11 11 11 13 12 12 12 11 12 14 14 14 14 14 16 15 16 14 14 13 13 12 13 13 14 14 11 12 11 11 9 7 6 5 6 7 7 8 7 7 7 6 6 6 5 6 6 6 6 7 8 10 10 10 10 11 10 10 10 11 11 14 13 11 12 13 15 15 15 13 14 13
1 3 4 6 8 7 4 3 4 5 9 2 5 8 10 5 2 4 6 5 3 6 5 12 11 11 9 10 11 12 12 11 11 12 13 14 15 16 15 16 15 15 15 14 13 12 12 13 14 15 15 15 12 11 11 10 8 8 7 7 7 7 8 7 8 8 8 8 8 7 6 5 6 6 6 7 8 10 9 10 10 10 10 11 12 9 10 12 11 10 10 12 13 16 14 13 13
3 4 4 5 5 2 6 4 4 6 7 4 2 3 6 13 12 14 7 2 10 8 7 9 12 10 10 11 12 11 10 11 11 11 11 11 12 12 13 13 13 14 13 13 13 12 12 13 14 14 15 15 13 12 12 12 11 10 9 8 8 7 7 8 8 8 8 8 8 7 6 6 5 5 6 7 8 10 9 9 10 11 11 11 11 11 11 13 12 11 11 13 15 16 15 16 14
7 7 5 4 6 6 10 7 7 9 3 4 1 2 9 11 12 15 15 1 11 13 13 13 12 12 11 11 10 10 10 10 10 11 10 11 11 11 11 11 12 12 13 13 12 12 11 12 14 15 14 14 13 13 13 13 12 11 10 9 8 7 7 7 7 7 7 8 7 8 7 7 6 6 6 7 7 8 9 9 10 10 11 10 11 12 12 12 13 12 12 13 15 15 14 17 15
11 8 8 6 6 5 9 6 11 9 9 2 3 4 4 2 5 11 15 14 12 13 13 12 13 13 12 11 10 10 10 10 9 10 10 10 10 10 11 12 12 12 14 14 13 13 12 12 12 13 13 14 14 13 12 14 11 12 11 9 8 8 7 7 7 7 7 8 8 8 8 7 7 7 7 6 6 8 8 9 9 10 10 11 10 11 10 11 12 12 12 13 12 12 14 14 15
4 2 1 4 7 4 11 7 9 10 10 9 4 6 3 5 5 6 12 13 14 13 13 12 12 11 11 10 10 9 8 9 9 9 8 9 10 11 11 11 10 10 12 11 12 11 12 12 13 14 14 14 14 14 13 12 11 10 11 11 10 9 8 8 7 7 8 8 8 8 8 8 8 8 8 7 5 6 7 8 8 9 10 10 10 10 10 10 10 12 12 12 13 10 13 16 15
2 4 5 4 4 2 7 8 9 9 6 14 8 12 13 8 13 19 13 17 13 11 12 11 11 10 10 9 7 7 6 6 5 6 7 10 10 10 9 8 8 8 8 9 9 9 10 10 11 12 13 14 15 15 14 14 12 11 11 11 11 10 9 9 8 9 9 8 7 7 7 8 8 8 7 6 6 5 6 6 7 8 9 9 9 10 10 10 10 11 12 13 13 11 12 14 13
5 3 3 2 2 2 3 9 6 10 13 11 6 13 12 7 8 11 13 14 11 9 10 11 10 9 9 6 5 4 4 5 6 7 7 7 7 7 6 6 7 6 6 7 8 8 7 8 9 10 11 12 12 12 12 11 12 11 11 12 12 11 10 9 9 9 9 8 8 8 8 7 8 7 7 6 6 6 5 6 6 7 7 8 9 9 9 10 10 10 12 13 12 10 12 12 13
6 5 5 3 3 6 7 5 10 12 12 9 10 15 14 13 12 3 10 11 10 9 8 8 8 7 7 7 6 5 5 4 4 4 4 3 3 3 3 3 5 6 6 6 6 8 9 9 10 10 12 11 11 9 9 8 9 7 8 10 11 11 11 10 10 10 10 9 10 9 9 9 9 8 7 7 6 5 6 6 7 8 7 8 9 9 9 9 10 11 11 11 12 12 12 13 13
3 2 5 1 2 6 11 8 4 3 14 10 10 8 10 9 7 4 8 9 9 8 7 7 7 7 6 5 4 3 3 3 3 3 2 1 1 2 3 4 5 6 6 5 5 5 7 8 9 10 10 9 9 8 7 6 7 8 10 10 11 11 11 10 10 10 9 10 10 10 10 10 10 9 8 8 7 6 7 7 6 7 8 8 9 9 9 10 10 11 11 10 11 12 14 14 13
6 6 8 4 3 2 2 2 4 7 11 10 9 10 8 3 5 4 9 9 8 8 8 6 5 5 5 4 3 2 2 2 1 1 1 1 2 3 4 3 3 3 4 5 5 6 6 6 7 6 7 7 9 9 9 9 9 10 11 11 10 10 11 9 10 8 8 9 9 9 9 9 9 9 8 8 8 8 8 8 8 8 8 9 9 9 9 9 10 11 11 12 11 12 14 14 13
4 3 6 8 7 6 8 11 6 4 7 8 10 12 7 3 5 7 6 6 7 7 7 6 6 6 5 4 4 2 2 1 1 1 2 3 3 4 4 3 3 3 4 4 5 5 6 7 6 6 6 7 7 7 8 8 8 9 11 10 10 8 9 9 10 10 11 10 10 9 9 9 9 9 8 9 9 8 7 8 8 8 8 9 9 10 9 9 10 11 11 9 10 12 13 14 14
Wind_Direction
272 236 277 273 269 264 292 244 280 163 229 263 281 309 64 354 25 301 277 47 180 70 15 342 290 267 270 355 328 329 313 302 329 302 360 86 132 142 165 139 170 153 155 156 147 154 164 173 179 180 178 179 180 181 179 177 179 177 175 177 178 179 180 182 184 185 188 191 188 189 182 171 165 151 145 134 128 119 115 121 122 123 123 120 114 113 108 101 95 102 97 90 88 86 84 76 72
271 297 266 264 263 277 215 351 278 270 238 265 179 331 42 7 255 267 6 20 24 10 346 309 296 273 267 287 299 304 276 237 275 328 90 106 148 154 164 151 168 161 161 159 149 160 168 172 184 182 181 180 182 182 180 179 182 180 183 182 180 182 186 186 187 190 193 198 195 193 182 174 165 153 144 135 125 116 116 116 120 124 119 115 112 108 103 98 100 99 98 91 86 82 83 79 72
311 290 260 228 245 249 299 241 275 309 308 293 76 80 60 327 350 37 28 14 11 17 328 291 290 266 253 247 271 256 359 11 317 298 313 138 196 130 160 154 169 167 162 161 156 161 168 172 185 187 184 184 184 184 183 181 184 183 186 186 188 187 190 191 192 193 194 198 195 191 177 173 163 155 145 135 123 120 112 104 116 120 124 119 112 105 102 106 107 103 99 101 95 90 84 78 70
285 287 288 268 259 195 269 225 255 288 299 330 291 90 24 332 10 348 357 19 357 317 292 267 274 117 264 246 282 316 260 289 63 351 306 107 40 116 159 156 157 175 162 166 163 164 174 160 176 193 190 186 188 187 184 185 186 186 187 190 190 191 193 197 198 198 198 197 192 181 175 166 159 153 146 139 127 121 123 108 99 114 120 117 109 104 106 101 99 96 103 104 103 101 95 90 80
269 248 269 272 280 252 263 285 296 295 273 7 324 6 62 26 321 340 329 345 308 270 277 301 268 151 267 290 323 280 32 334 88 81 56 80 88 128 154 155 165 173 167 173 170 164 175 146 170 190 198 190 191 190 187 187 186 188 187 189 192 194 196 198 199 197 199 192 180 178 168 163 157 150 144 136 139 129 117 114 117 48 27 126 128 120 118 118 107 110 108 107 110 109 106 104 101
260 260 201 259 272 9 271 258 229 231 273 333 300 326 343 8 338 344 316 311 315 283 261 248 278 321 231 223 218 242 19 316 63 169 298 93 121 142 158 159 174 176 168 176 174 166 161 150 158 181 200 192 192 191 188 190 187 187 188 190 192 192 195 197 199 195 193 177 176 174 167 163 158 148 134 127 127 139 128 44 27 89 26 187 148 165 140 140 137 124 132 114 111 111 109 107 107
259 232 186 222 222 230 268 272 287 307 23 23 312 311 327 330 346 325 309 305 118 227 184 227 294 267 258 228 207 237 257 49 272 65 29 120 136 173 155 173 177 181 169 175 177 175 142 151 156 170 196 193 192 189 186 188 188 189 188 190 190 189 190 193 192 187 178 175 174 170 165 162 157 148 144 145 143 123 105 88 285 108 101 327 200 207 189 170 152 151 157 120 110 105 105 105 99
277 277 113 249 218 199 239 258 276 284 18 28 329 299 305 323 326 312 303 301 160 258 168 235 224 271 284 108 292 98 98 161 104 112 120 132 131 159 168 176 180 183 175 176 174 172 129 150 161 172 189 190 187 181 178 185 187 187 186 187 184 183 180 182 179 174 170 171 170 170 165 166 167 150 154 167 160 145 152 184 243 170 169 163 254 193 162 147 137 149 137 112 106 104 102 100 95
221 256 86 264 251 203 267 267 286 264 280 288 291 288 288 291 308 305 290 279 281 252 223 214 209 248 101 189 249 130 133 130 137 109 126 130 154 160 178 184 183 179 177 177 174 169 140 142 164 173 186 185 178 174 177 184 185 185 182 182 179 179 171 172 173 168 169 173 172 178 172 172 186 170 177 176 183 171 180 198 225 193 216 226 214 189 148 139 140 141 125 112 107 102 99 95 93
207 257 209 264 318 272 263 262 248 58 318 340 302 306 308 310 296 283 296 289 315 304 193 57 219 235 294 295 294 173 139 154 143 164 170 161 161 169 178 190 187 178 177 178 178 176 152 147 159 182 182 179 175 174 177 183 181 185 181 179 178 178 173 173 175 174 174 179 185 190 185 187 182 183 156 161 132 108 185 213 221 217 216 213 206 184 148 149 150 135 117 110 106 101 96 94 94
233 188 307 270 239 267 280 320 339 317 313 331 280 272 348 321 307 289 272 292 269 281 123 166 220 236 256 266 269 82 120 146 168 186 165 164 169 175 182 184 190 183 180 183 175 177 166 162 166 186 182 178 171 177 180 175 177 179 181 180 183 176 180 179 185 183 190 193 197 201 197 202 182 203 155 130 136 154 198 209 219 204 190 197 193 177 171 163 150 134 120 107 101 100 95 92 89
246 216 187 272 287 305 324 322 315 302 309 293 266 120 116 326 275 261 232 273 334 251 260 161 348 342 252 257 262 152 142 161 165 105 138 148 179 180 186 173 187 187 184 183 178 178 178 179 173 181 191 186 174 178 185 180 176 175 177 186 185 192 192 184 192 192 196 208 211 220 218 206 195 188 172 155 158 180 205 205 201 201 195 193 190 186 174 162 149 131 117 109 104 100 99 93 89
275 327 263 270 291 299 325 293 300 319 289 236 89 121 108 234 251 289 304 300 282 286 274 185 314 272 266 271 343 127 181 133 112 112 131 166 167 171 191 177 183 186 184 186 183 184 186 182 187 184 182 182 186 186 188 190 187 180 178 187 194 197 197 197 196 192 202 205 204 211 180 167 169 189 170 165 167 195 209 203 197 199 197 196 191 182 175 162 142 130 125 119 113 107 103 100 94
267 289 304 286 329 274 276 295 286 283 305 68 87 127 195 248 256 295 309 285 288 278 45 12 248 287 273 273 266 243 111 103 109 111 133 150 142 163 182 178 180 188 186 189 193 191 191 193 188 193 181 187 187 186 196 197 192 190 186 190 194 193 193 200 204 198 196 191 183 189 177 168 163 161 157 169 172 196 207 199 193 196 193 189 181 175 169 153 144 138 135 130 125 119 113 110 102
263 334 272 270 285 278 255 262 326 319 290 302 116 182 203 228 263 249 275 295 295 53 77 240 258 173 295 265 294 70 99 108 108 114 120 131 141 165 179 176 181 196 191 195 197 196 196 199 194 194 192 193 196 192 195 197 203 198 195 190 186 187 191 196 198 187 181 174 163 149 129 147 144 146 152 167 168 179 201 191 192 195 191 184 179 171 162 153 149 146 143 140 135 129 123 116 111
277 278 250 275 277 281 266 238 252 276 298 354 106 126 266 276 215 247 264 313 303 304 276 266 178 242 278 285 319 91 103 120 119 132 128 140 159 164 179 192 196 194 200 201 203 203 200 200 200 200 200 200 202 201 204 201 195 198 191 184 182 181 180 184 181 174 167 155 143 133 130 128 132 136 138 142 157 181 189 195 182 201 187 182 176 170 159 156 153 152 149 146 139 133 124 115 111
252 260 260 245 258 245 227 264 282 286 336 317 128 200 270 299 108 252 74 288 278 280 267 252 226 225 254 262 67 125 121 114 132 136 143 157 172 190 190 197 202 197 200 204 206 204 204 202 201 202 202 203 206 205 208 206 180 187 187 184 182 181 176 178 174 164 153 139 138 136 141 167 172 162 153 180 155 194 176 198 175 202 186 181 173 171 161 157 157 154 153 147 141 129 113 100 96
213 227 242 255 261 267 293 274 298 312 293 300 285 269 279 286 258 166 170 238 240 265 266 272 253 234 245 252 115 129 146 147 155 165 179 187 190 196 198 199 196 203 197 201 206 205 201 205 204 206 203 204 203 206 207 206 180 181 197 186 187 180 176 174 170 178 172 166 144 147 182 197 198 199 194 199 189 197 174 179 179 189 184 175 165 170 160 159 157 155 153 146 136 125 123 119 100
221 253 256 262 271 291 324 290 295 299 294 303 299 297 278 277 294 292 289 279 282 278 266 264 263 252 244 247 209 171 171 185 175 201 207 206 200 212 206 196 201 204 200 201 202 203 203 202 204 205 204 203 206 205 207 213 185 184 198 199 194 187 184 181 192 189 189 188 176 186 197 203 201 198 199 187 201 186 179 167 172 173 171 159 154 161 162 159 157 153 147 142 140 147 169 146 138
231 256 261 262 265 272 274 278 289 288 294 289 296 296 299 289 284 289 262 280 281 268 274 277 272 274 265 236 233 213 195 214 203 211 224 227 223 222 223 213 203 206 206 198 199 199 202 204 203 206 203 202 202 205 206 210 207 182 207 210 205 197 194 190 200 197 197 201 198 196 200 201 196 203 169 166 163 175 156 162 163 151 140 141 143 149 158 161 158 149 147 144 148 188 185 165 147
191 227 246 266 289 302 279 292 286 285 287 291 293 298 290 279 277 262 259 277 261 264 260 263 274 281 287 297 304 250 203 211 213 218 227 234 232 229 232 228 220 207 206 198 197 196 200 201 199 203 203 202 200 201 203 207 211 210 207 208 209 208 204 191 199 200 200 200 198 199 201 196 190 200 168 168 184 183 180 178 168 169 167 166 155 170 169 160 160 158 151 172 190 196 188 172 166
290 244 256 272 279 272 272 279 292 280 311 291 287 286 285 304 273 254 256 257 263 267 286 294 296 293 296 297 297 299 209 219 222 219 226 229 230 229 228 233 232 225 195 200 199 197 197 199 199 198 201 202 198 199 202 205 207 210 208 204 208 208 201 193 196 200 200 200 198 197 198 194 191 196 176 180 186 184 177 182 182 183 179 177 178 179 177 166 181 170 174 191 196 184 184 169 177
254 255 250 252 259 269 287 289 312 185 278 277 281 285 301 282 278 271 265 253 260 264 278 284 284 286 288 290 287 277 240 242 247 241 234 232 232 232 234 231 228 219 205 207 202 202 195 196 200 198 199 199 203 201 202 209 209 206 205 201 202 197 193 193 194 198 198 194 196 193 198 193 190 194 178 184 188 188 182 183 183 184 180 179 183 186 178 173 183 174 181 191 187 170 158 144 129
247 272 277 278 285 271 280 284 286 250 264 266 275 289 279 279 280 283 273 268 265 270 270 272 276 280 284 284 279 266 256 259 256 253 248 243 237 231 227 231 231 227 217 209 205 202 192 195 197 197 199 197 197 200 205 209 205 198 199 194 198 196 191 194 196 198 193 194 192 194 197 189 187 191 184 186 189 191 187 184 182 183 180 179 181 186 172 174 181 177 179 180 169 160 154 150 138
247 259 263 267 267 277 283 280 276 269 256 264 270 271 265 266 275 292 275 274 274 269 266 268 272 276 280 279 276 266 258 257 255 252 248 244 242 243 238 235 235 232 231 218 207 204 199 193 195 199 198 198 195 194 203 204 202 200 199 200 199 191 196 197 196 194 195 193 193 195 196 188 189 190 187 187 187 191 186 184 182 182 177 176 179 179 173 174 177 175 174 172 172 165 154 156 142
254 253 271 287 287 283 279 280 271 259 261 255 256 257 265 270 283 272 271 274 266 261 264 268 273 276 276 279 276 267 261 258 254 254 251 244 235 238 235 227 224 227 228 225 212 206 202 193 195 197 198 198 196 195 202 204 202 201 201 200 199 189 198 197 193 195 196 194 193 198 194 194 190 189 187 187 187 187 186 182 182 179 179 175 175 177 175 174 175 172 173 170 167 162 162 153 152
349 305 306 297 288 289 281 273 271 264 261 254 244 260 270 280 274 276 269 282 324 282 272 277 286 286 285 284 281 271 262 261 258 260 258 244 237 227 232 220 220 228 225 225 219 211 199 194 196 196 198 194 196 198 197 204 202 204 201 201 199 195 193 194 194 193 194 192 193 192 192 193 189 190 187 187 187 186 186 181 182 178 177 174 175 173 170 174 173 174 172 169 167 166 163 149 167
300 307 306 285 280 274 273 269 265 259 260 257 244 254 270 273 256 256 277 271 268 273 279 283 287 289 291 288 282 274 259 255 253 251 251 248 233 224 228 218 219 223 219 221 219 210 200 198 196 197 198 194 195 198 197 200 203 204 200 203 204 198 191 194 195 194 192 193 192 188 190 191 190 192 189 188 188 184 185 182 183 179 180 172 174 170 165 171 171 167 162 168 163 163 149 155 159
303 306 293 286 284 280 271 264 263 250 244 120 219 254 258 252 229 247 250 261 267 270 277 280 278 281 286 287 284 276 264 255 245 238 238 234 234 223 229 215 214 214 216 217 212 207 206 198 196 197 196 195 195 197 196 198 201 201 200 203 204 196 195 194 195 194 192 193 188 185 188 188 190 192 191 189 187 186 184 180 181 181 177 168 170 164 157 162 165 155 153 150 156 154 149 148 152
286 269 268 285 281 275 275 272 255 234 218 130 159 280 269 275 256 253 266 271 272 262 271 288 291 289 287 286 282 277 271 267 260 246 237 231 229 230 235 229 219 218 215 207 207 209 202 196 193 192 197 197 196 200 197 194 197 198 200 202 202 197 197 196 198 193 193 191 184 184 186 188 190 191 190 187 184 187 183 180 180 176 176 165 164 156 162 168 167 163 157 164 163 165 163 159 167
274 288 276 267 286 276 280 223 137 234 127 173 198 268 283 276 277 285 306 8 301 273 287 291 288 287 286 282 278 273 268 261 264 268 265 252 245 237 228 240 237 227 217 215 203 203 196 192 184 195 191 201 193 202 199 198 195 195 197 198 198 197 197 199 199 195 194 191 184 183 185 188 189 191 188 184 186 189 184 180 180 177 173 164 163 166 168 172 172 170 166 174 163 178 169 164 173
266 289 255 243 244 265 278 182 178 256 150 205 188 263 270 281 293 303 303 297 277 276 285 286 284 282 281 278 274 271 269 269 271 277 279 276 267 250 238 239 237 239 232 222 212 196 204 196 187 196 191 198 198 197 199 199 197 198 197 195 198 196 199 201 198 197 194 192 189 185 184 187 187 190 189 186 185 192 188 185 183 178 169 164 169 166 176 174 176 173 176 175 164 178 167 167 177
247 243 266 268 271 283 293 268 258 278 105 189 206 274 292 281 285 296 302 298 294 289 287 284 282 281 278 273 271 270 273 277 278 277 278 277 280 262 253 255 249 242 239 231 221 205 205 205 190 198 197 198 201 197 198 201 200 200 199 199 201 197 201 201 201 198 195 195 194 189 182 184 184 187 189 186 187 190 191 188 184 177 165 168 168 168 177 178 172 173 174 184 175 168 169 166 167
257 246 261 260 272 292 278 304 291 47 187 267 219 246 260 277 285 287 286 284 285 284 281 276 277 281 280 278 274 274 275 281 285 288 296 296 284 279 276 272 270 268 254 244 244 223 213 211 198 195 202 199 203 200 199 199 201 198 202 202 203 206 203 203 203 199 199 198 195 193 177 180 183 188 188 187 189 190 191 189 182 172 161 167 169 168 179 177 173 174 169 179 181 170 170 169 167
293 301 295 293 295 297 298 297 306 295 280 283 285 273 276 284 290 286 286 284 278 274 273 273 280 284 286 279 274 275 282 287 292 312 310 299 304 301 308 310 308 300 292 277 248 240 220 212 202 185 193 196 199 200 198 202 202 203 203 204 204 208 202 205 205 204 202 198 199 191 176 179 181 189 189 187 189 190 192 189 184 165 161 171 169 171 176 179 175 181 172 166 179 182 171 169 164
281 289 298 293 289 283 286 292 291 291 288 288 289 285 292 293 293 288 281 272 266 269 272 285 287 280 272 274 281 284 291 303 3 321 312 323 332 336 338 346 351 348 336 319 311 250 221 214 204 184 186 192 192 198 191 194 200 204 204 203 206 206 206 202 206 209 203 202 198 189 180 179 180 187 189 188 189 190 190 189 181 157 166 172 173 174 180 180 176 178 178 164 163 161 177 163 151
284 287 278 276 276 277 278 274 282 286 291 280 284 291 294 295 291 288 280 273 270 268 277 277 271 268 271 279 294 331 348 337 320 314 337 360 1 5 6 11 5 3 10 354 332 279 228 216 198 200 180 186 186 188 193 192 195 202 208 212 214 208 208 208 209 211 213 210 202 195 183 180 180 183 188 187 191 190 193 189 177 161 170 178 180 185 184 180 176 176 166 165 162 153 165 160 151
280 278 278 275 270 279 277 284 293 290 284 289 287 287 291 300 296 281 275 281 283 279 266 262 263 267 285 342 38 10 329 311 311 22 41 45 34 28 33 32 29 34 22 16 15 353 342 297 243 215 181 183 191 193 192 196 204 207 206 214 218 218 207 206 212 211 214 215 211 201 191 182 183 181 184 187 186 191 195 193 181 167 172 185 188 187 183 174 171 175 163 157 180 171 171 170 162
272 270 276 280 278 280 283 279 283 309 339 287 301 300 296 288 279 277 285 288 280 264 253 257 268 291 308 329 315 329 342 24 50 55 58 53 49 42 38 39 40 35 30 28 19 13 14 358 341 284 193 179 194 197 194 200 206 212 219 227 220 225 226 226 223 221 213 215 210 204 196 184 185 184 182 186 187 192 197 193 184 170 180 183 185 184 181 175 175 178 175 170 167 187 173 173 176
259 261 262 267 283 290 297 297 252 235 260 299 305 299 290 270 263 267 262 90 256 253 254 262 277 294 323 324 355 10 38 48 61 58 52 52 44 38 34 34 34 34 32 28 21 20 22 17 14 2 345 189 194 195 205 208 212 209 207 230 227 225 229 218 226 224 219 213 210 200 199 195 190 190 186 185 190 192 198 199 188 180 182 186 189 185 185 184 178 182 182 182 168 164 188 180 193
255 252 260 271 274 279 291 306 314 310 297 282 306 285 290 292 216 205 199 220 261 270 263 231 72 85 82 80 55 42 52 59 64 58 52 45 42 38 35 31 29 31 27 23 20 20 16 17 16 16 7 10 255 176 185 201 176 174 169 156 102 200 237 211 201 214 208 200 205 203 200 194 194 195 192 190 189 195 199 204 197 186 182 188 190 194 190 188 182 188 184 183 183 177 183 171 190
275 262 257 265 280 294 303 311 320 311 301 78 348 328 317 97 11 308 309 320 287 279 300 37 45 46 44 47 52 57 56 55 55 53 48 41 37 37 33 30 29 27 25 19 19 21 21 20 18 16 27 26 9 126 182 196 189 203 200 210 224 227 237 228 231 231 216 213 217 214 209 203 200 202 201 196 193 191 196 203 201 193 187 189 192 200 195 185 189 188 189 191 191 196 180 162 181
271 300 358 313 311 308 305 310 323 301 305 360 37 306 291 264 281 276 281 276 266 273 66 65 56 52 56 50 45 48 48 54 51 47 39 36 33 35 35 31 28 26 20 17 20 19 21 22 20 20 26 30 31 2 181 211 210 233 238 247 258 265 266 259 247 243 239 227 218 212 208 205 204 204 205 204 199 197 199 202 201 202 196 193 195 204 202 196 189 192 186 198 196 192 183 190 184
263 41 331 340 307 304 317 316 288 274 286 279 255 217 277 296 283 268 221 250 262 77 78 68 56 58 52 59 58 47 48 49 48 44 42 40 37 35 35 31 30 25 19 18 19 19 20 19 20 23 26 29 32 6 11 353 311 272 268 263 266 271 272 280 289 284 250 240 230 208 207 206 202 207 210 210 205 200 199 204 203 203 201 197 193 204 207 202 184 193 195 199 197 197 194 195 189
286 90 14 305 307 295 290 283 284 286 300 293 201 202 259 265 295 149 245 245 276 104 89 81 68 52 46 56 63 65 56 48 45 46 43 37 36 35 33 33 29 27 23 20 19 19 18 20 24 24 25 26 19 19 7 7 355 338 322 301 284 281 281 281 284 279 268 239 224 210 210 210 203 206 213 214 211 207 203 210 207 205 205 206 203 204 207 207 199 190 192 195 202 201 202 203 194
91 110 92 188 237 235 257 268 277 283 279 273 237 192 256 289 316 177 189 344 297 106 91 80 77 71 58 49 51 57 58 47 42 45 45 42 36 35 34 35 32 29 25 22 24 24 22 21 24 23 24 24 19 17 12 11 9 355 336 323 311 305 304 299 289 282 277 257 237 220 210 211 210 204 209 215 213 211 208 209 215 211 211 208 204 207 209 212 209 204 199 201 204 206 206 207 207
98 279 293 276 240 245 232 239 266 276 255 265 249 197 228 291 345 295 138 20 48 43 92 93 77 75 62 49 54 51 46 46 38 39 41 40 36 35 30 33 29 27 23 21 20 21 23 24 22 27 23 21 18 16 14 12 12 10 0 341 328 315 311 304 298 292 285 277 263 242 224 219 213 208 204 208 214 213 212 209 214 214 216 216 216 214 212 211 207 199 198 203 206 208 208 207 210
294 273 285 308 277 219 235 232 218 254 275 19 69 192 215 251 185 109 91 132 93 66 76 98 92 79 69 58 45 44 51 46 40 34 32 30 29 29 29 28 25 22 20 20 19 19 21 22 20 24 24 22 18 15 16 15 12 12 3 351 336 327 320 312 306 301 298 292 283 272 261 236 222 214 205 207 211 212 214 215 214 220 221 220 219 217 214 214 215 206 197 199 206 211 215 211 212
204 232 250 262 284 307 270 208 226 234 272 116 91 66 267 237 243 268 317 237 85 74 98 105 100 93 77 68 60 52 42 45 45 40 33 32 33 28 27 26 25 24 22 18 19 18 19 21 21 23 23 19 18 17 17 15 19 15 9 357 351 341 330 319 309 306 305 299 295 288 277 266 246 224 210 211 212 209 209 214 214 215 220 220 221 222 220 217 220 215 208 207 210 210 213 213 213
198 209 211 231 262 251 267 274 273 270 250 146 194 104 259 273 274 251 245 295 85 94 91 97 95 87 76 63 58 57 52 45 42 39 35 29 29 30 29 29 27 22 19 20 20 21 19 19 18 19 19 18 19 20 19 17 17 15 10 6 356 351 343 334 325 317 314 308 304 299 293 283 274 259 241 218 211 207 208 212 217 220 223 225 222 226 224 220 219 222 214 213 211 215 217 218 222
203 206 194 222 237 264 281 279 276 274 287 314 177 292 227 297 347 72 76 87 90 85 88 84 85 85 77 67 58 51 50 45 41 43 39 32 27 28 29 27 24 21 17 15 14 13 16 18 18 21 20 17 18 19 20 21 18 16 13 9 5 360 352 341 334 329 323 318 311 305 299 295 288 285 277 260 222 208 207 213 216 222 223 225 223 225 224 226 223 226 226 221 217 215 218 219 224
173 205 285 266 242 247 257 277 282 292 297 278 191 208 293 265 108 116 102 104 88 90 82 80 79 76 75 68 56 49 42 38 36 37 37 33 32 30 29 27 22 19 19 16 15 12 13 13 13 16 16 14 16 18 22 19 16 13 13 12 12 6 357 351 342 338 329 321 314 308 303 299 296 295 292 288 251 217 212 214 218 223 226 226 225 225 222 222 222 224 230 228 226 219 221 221 224
125 128 211 231 28 273 275 262 254 267 265 255 261 263 258 257 256 250 190 91 94 87 85 82 78 78 78 77 71 63 56 51 50 44 36 29 27 26 24 22 21 21 20 21 20 17 18 15 15 17 16 18 16 13 12 11 9 12 15 18 15 10 5 356 346 335 327 322 316 312 306 303 299 294 293 290 276 232 225 219 221 223 225 229 227 228 227 227 226 229 230 229 230 223 224 226 224
114 209 217 73 225 352 249 269 267 255 256 262 242 264 273 271 286 72 93 102 102 91 86 90 90 90 89 93 92 91 77 62 51 47 40 33 25 17 18 18 21 21 20 21 22 19 21 24 22 25 22 22 19 15 14 11 4 2 5 11 15 16 11 3 354 341 333 328 326 320 315 309 305 304 298 291 275 252 241 225 231 231 230 230 231 230 228 228 227 230 229 230 231 226 227 231 227
256 280 38 278 247 249 213 236 245 246 248 262 236 256 260 265 266 230 143 120 118 105 97 94 89 86 85 77 71 65 64 56 52 46 37 24 19 8 350 353 351 356 3 11 19 20 20 22 20 25 26 23 20 15 9 10 8 5 3 8 11 11 10 7 1 355 346 339 333 327 322 316 309 304 297 291 277 255 246 234 232 237 233 230 229 230 227 228 225 232 230 233 228 226 232 232 229
252 2 273 161 294 248 262 254 282 266 267 263 255 235 256 244 306 350 81 101 109 102 89 77 76 71 72 85 78 72 60 49 43 39 25 356 355 321 340 341 338 332 337 350 358 4 17 18 23 26 24 21 20 21 17 11 8 11 10 11 11 12 9 4 359 358 352 348 342 334 327 321 316 313 305 298 287 271 259 248 230 231 234 234 232 229 226 228 228 230 231 230 227 223 231 233 232
198 213 237 210 218 32 328 325 236 248 264 262 283 262 255 285 24 78 95 89 89 102 106 106 103 108 105 94 95 94 111 127 178 188 237 294 332 350 347 350 345 330 348 353 359 9 16 17 18 19 20 16 18 14 10 9 7 11 14 13 8 6 4 0 356 357 354 348 347 341 337 329 320 311 308 300 291 282 275 264 249 237 232 232 232 233 227 227 227 230 229 229 229 225 230 234 233
325 261 245 254 263 252 250 258 217 226 232 248 245 254 262 47 13 84 90 88 83 71 82 95 101 96 101 101 94 98 81 76 56 3 3 344 345 340 330 331 334 342 1 352 7 14 18 21 17 14 16 16 10 7 9 3 2 3 9 8 5 3 359 354 355 353 357 354 351 348 342 333 326 317 316 308 301 292 285 278 266 256 246 236 234 233 231 227 226 229 231 227 229 225 225 230 231